Tracking 32136 objects as of 11-Nov-2025
HD Live streaming from Space Station
objects crossing your sky now

OPS 1948

Track OPS 1948 now!
OPS 1948 is classified as:


NORAD ID: 11558
Int'l Code: 1979-086A
Perigee: 30,286.8 km
Apogee: 41,346.7 km
Inclination: 5.9 °
Period: 1,437.3 minutes
Semi major axis: 42187 km
RCS: Unknown
Launch date: October 1, 1979
Source: United States (US)
Launch site: AIR FORCE EASTERN TEST RANGE (AFETR)
Your satellite tracking list
Your tracking list is empty




NASA's NSSDC Master Catalog

Two Line Element Set (TLE):
1 11558U 79086A   25314.91335624 -.00000422  00000-0  00000-0 0  9997
2 11558   5.8796  10.1714 1310785  75.6675  57.5944  1.00189759 24024
Source of the keplerian elements: McCants